This is the latest recevied weather packets stored in our database for station/object KD8OZS. If no packets are shown the sender has not sent any weather packets the latest 10 day(s).
| Time | Temp. | Humidity | Pressure | Rain* | Wind** | Luminosity | Snow |
|---|---|---|---|---|---|---|---|
| 1787852950 | 26.67° C | 75% | 1007.2 hPa | 0 mm | - | 202 W/m² | - |
| 1787852644 | 26.11° C | 76% | 1007.3 hPa | 0 mm | - | 146 W/m² | - |
| 1787852344 | 26.67° C | 76% | 1007.4 hPa | 0 mm | - | 140 W/m² | - |
| 1787852043 | 26.67° C | 75% | 1007.2 hPa | 0 mm | - | 734 W/m² | - |
| 1787851743 | 26.67° C | 75% | 1007.4 hPa | 0 mm | - | 416 W/m² | - |
| 1787851437 | 25.56° C | 77% | 1007.3 hPa | 0 mm | - | 232 W/m² | - |
| 1787851133 | 26.11° C | 75% | 1007.3 hPa | 0 mm | - | 139 W/m² | - |
| 1787850828 | 27.22° C | 75% | 1007.4 hPa | 0 mm | - | 247 W/m² | - |
| 1787850524 | 26.67° C | 73% | 1007.7 hPa | 0 mm | - | 282 W/m² | - |
| 1787850219 | 26.67° C | 75% | 1007.5 hPa | 0 mm | - | 260 W/m² | - |
| 1787849919 | 26.11° C | 76% | 1007.5 hPa | 0 mm | - | 212 W/m² | - |
| 1787849613 | 26.67° C | 75% | 1007.5 hPa | 0 mm | - | 218 W/m² | - |
| 1787849313 | 26.67° C | 73% | 1007.7 hPa | 0 mm | - | 281 W/m² | - |
| 1787849007 | 26.11° C | 75% | 1007.4 hPa | 0 mm | - | 545 W/m² | - |
| 1787848701 | 26.67° C | 73% | 1007.8 hPa | 0 mm | - | 170 W/m² | - |
| 1787848397 | 27.22° C | 72% | 1007.8 hPa | 0 mm | - | 567 W/m² | - |
| 1787848091 | 26.67° C | 76% | 1008.2 hPa | 0 mm | - | 194 W/m² | - |
| 1787847790 | 26.11° C | 76% | 1008.1 hPa | 0 mm | - | 147 W/m² | - |
| 1787847486 | 26.11° C | 73% | 1008 hPa | 0 mm | - | 141 W/m² | - |
| 1787847181 | 26.11° C | 75% | 1008 hPa | 0 mm | - | 354 W/m² | - |
| 1787846878 | 26.11° C | 77% | 1008.1 hPa | 0 mm | - | 160 W/m² | - |
| 1787846571 | 25.56° C | 75% | 1008 hPa | 0 mm | - | 154 W/m² | - |
| 1787846261 | 25.56° C | 80% | 1008.2 hPa | 0 mm | - | 212 W/m² | - |
| 1787845958 | 25° C | 78% | 1007.8 hPa | 0 mm | - | 187 W/m² | - |
| 1787845653 | 25.56° C | 79% | 1007.8 hPa | 0 mm | - | 256 W/m² | - |
* Rain latest hour (hover to see other rain measurements)
** Current wind speed in m/s (hover to see current wind gust speed)